LIMF

Turin/Caselle Airport

Airport
ICAO code
LIMF
IATA Code
TRN
Summary
ICAO Region
EUR
ICAO Territory
Location

Caselle Torinese, Piedmont

Serving
Turin
Elevation
989 ft
Coordinates
45° 11' 51" N , 7° 38' 58" E
KCC
Metar
Observation
LIMF 090450Z AUTO 36003KT 9999 ///////// M00/M07 Q1036
Station
Torino / Caselle
Date/Time
2023-02-09 04:50:00
Wind direction
360°
Wind speed
03 kts
Lowest cloud amount
n/a
Temperature
-0°C
Dew point
-7°C
Humidity
59%
QNH
1036 hPa
Weather condition
n/a

International airport serving city of Turin.

Climatology

Humid “subtropical” climate (Köppen climate classification Cfa) - characterized by hot, humid summers and cool winters. Significant amounts of precipitation occur in all seasons in most areas. Winter rainfall (and sometimes snowfall) is associated with large storms that the westerlies steer from west to east. Most summer rainfall occurs during thunderstorms.

Runways

Designator Length Width Surface Rops
18/36 3300 60 ASP Yes/Yes

Airport map

Aerial View

SKYbrary Partners:

Safety knowledge contributed by: